This demonstration page uses our WeatherBlox Daily Observations layout. Learn more.

Left ArrowRight Arrow

39.92423, -83.80882

Hourly Observations for March 13, 2018

Temp ( °F °C ) Dew Point ( °F °C ) Humidity (%) Winds ( mph kmh ) Pressure ( in mb ) Visibility ( mi km ) Precip ( " mm )
12:56 am 00:56 Clear 27 -2.8 24 -4.4 89 89 WNW 9 15 30.08 1019 10 16 N/A
1:56 am 01:56 Clear 27 -2.8 25 -3.9 92 92 WNW 10 17 30.08 1019 10 16 N/A
2:56 am 02:56 Clear 25 -3.9 24 -4.4 96 96 WNW 8 13 30.08 1019 10 16 N/A
3:56 am 03:56 Clear 24 -4.4 22 -5.6 91 91 W 8 13 30.07 1018 10 16 N/A
4:56 am 04:56 Clear 22 -5.6 20 -6.7 92 92 W 8 13 30.06 1018 10 16 N/A
5:56 am 05:56 Clear 21 -6.1 19 -7.2 92 92 W 6 9 30.07 1018 10 16 N/A
6:56 am 06:56 Clear 21 -6.1 20 -6.7 96 96 W 9 15 30.08 1019 10 16 N/A
7:56 am 07:56 Sunny 24 -4.4 23 -5 96 96 W 8 13 30.09 1019 9 14 N/A
8:56 am 08:56 Sunny 27 -2.8 26 -3.3 96 96 WNW 9 15 30.08 1019 9 14 N/A
9:56 am 09:56 Sunny 32 undefined 27 -2.8 82 82 WNW 13 20 30.08 1019 10 16 N/A
10:56 am 10:56 Sunny 33 0.6 25 -3.9 72 72 NW 8 13 30.07 1018 10 16 N/A
11:56 am 11:56 Partly Cloudy with Isolated Snow Showers 32 undefined 24 -4.4 73 73 WNW 10 17 30.08 1019 8 13 N/A
12:10 pm 12:10 Partly Cloudy with Isolated Snow Showers 30 -1 27 -3 86 86 NW 10 17 30.09 1019 2 3 N/A
12:20 pm 12:20 Partly Cloudy with Isolated Snow Showers 30 -1 27 -3 86 86 NW 12 19 30.09 1019 1 1 N/A
12:29 pm 12:29 Partly Cloudy with Snow 28 -2 27 -3 93 93 NNW 8 13 30.09 1019 1 1 N/A
12:40 pm 12:40 Partly Cloudy with Isolated Snow Showers 30 -1 28 -2 93 93 NNW 9 15 30.09 1019 1 2 N/A
12:53 pm 12:53 Partly Cloudy with Isolated Snow Showers 30 -1 28 -2 93 93 NW 9 15 30.09 1019 2 3 N/A
12:56 pm 12:56 Partly Cloudy with Isolated Snow Showers 31 -0.6 28 -2.2 89 89 WNW 9 15 30.08 1019 2 3 N/A
1:14 pm 13:14 Partly Cloudy with Isolated Snow Showers 32 undefined 28 -2 87 87 NW 12 19 30.09 1019 4 6 N/A
1:56 pm 13:56 Partly Cloudy with Light Rain 34 1.1 26 -3.3 73 73 NW 12 19 30.05 1018 10 16 N/A
2:56 pm 14:56 Partly Cloudy with Light Rain 34 1.1 23 -5 64 64 NW 12 19 30.03 1017 10 16 N/A
3:56 pm 15:56 Partly Cloudy with Light Rain 32 undefined 24 -4.4 73 73 NNW 22 35 30.04 1017 10 16 N/A
4:07 pm 16:07 Partly Cloudy with Isolated Snow Showers 30 -1 27 -3 86 86 NW 17 28 30.06 1018 2 3 N/A
4:20 pm 16:20 Partly Cloudy with Isolated Snow Showers 30 -1 28 -2 93 93 NW 14 22 30.06 1018 3 5 N/A
4:56 pm 16:56 Partly Cloudy with Isolated Snow Showers 32 undefined 24 -4.4 73 73 NW 17 28 30.03 1017 8 13 N/A
5:46 pm 17:46 Partly Cloudy with Isolated Snow Showers 30 -1 25 -4 80 80 NW 15 24 30.06 1018 3 4 N/A
5:54 pm 17:54 Partly Cloudy with Isolated Snow Showers 30 -1 25 -4 80 80 WNW 17 28 30.06 1018 9 14 N/A
5:56 pm 17:56 Sunny 32 undefined 24 -4.4 73 73 WNW 17 28 30.04 1017 9 14 N/A
6:56 pm 18:56 Sunny 30 -1.1 24 -4.4 79 79 NW 13 20 30.05 1018 10 16 N/A
7:43 pm 19:43 Partly Cloudy with Isolated Snow Showers 30 -1 25 -4 80 80 NW 18 30 30.09 1019 2 2 N/A
7:47 pm 19:47 Partly Cloudy with Isolated Snow Showers 28 -2 25 -4 86 86 NW 15 24 30.09 1019 1 1 N/A
7:56 pm 19:56 Partly Cloudy with Isolated Snow Showers 28 -2.2 25 -3.9 88 88 NW 12 19 30.07 1018 1 2 N/A
8:11 pm 20:11 Partly Cloudy with Isolated Snow Showers 28 -2 27 -3 93 93 NW 10 17 30.09 1019 3 5 N/A
8:56 pm 20:56 Clear 28 -2.2 23 -5 81 81 NW 10 17 30.08 1019 10 16 N/A
9:35 pm 21:35 Partly Cloudy with Isolated Snow Showers 27 -3 25 -4 93 93 NNW 12 19 30.09 1019 3 4 N/A
9:43 pm 21:43 Partly Cloudy with Isolated Snow Showers 27 -3 23 -5 86 86 NNW 9 15 30.09 1019 9 14 N/A
9:56 pm 21:56 Clear 25 -3.9 22 -5.6 88 88 NW 6 9 30.07 1018 10 16 N/A
10:56 pm 22:56 Clear 22 -5.6 20 -6.7 92 92 W 8 13 30.07 1018 10 16 N/A
11:56 pm 23:56 Clear 24 -4.4 22 -5.6 91 91 WNW 10 17 30.08 1019 10 16 N/A

Powered by AerisWeather